Вернуться в каталог

KANOPUS-V 5

АктивенНаукаSSO
NORAD 43876·PAYLOAD·🇷🇺 Russia

Запущен Dec 27, 2018 с Vostochny Cosmodrome

Loading…

Ближайшие Пролёты (ближайшие 24 часа)

TLE

СвежийSource: Space-Track

Эпоха: Sep 14, 2026, 15:09 UTC

1 43876U 18111A   26257.63143778  .00001815  00000-0  81664-4 0  9995
2 43876  97.3473 161.2427 0001798  90.7072 269.4371 15.22346996428391

Отслеживайте KANOPUS-V 5 в реальном времени с AllMySat

Download on the App Store